Regional Weather Roundup
Issued by NWS Green Bay, WI

Home | Current Version | Previous Version | Text Only | Print | Product List | Glossary On
Versions: 1 2 3 4 5 6 7 8 9 10 11 12 13 14 15 16 17 18 19 20 21 22 23 24 25 26 27 28 29 30 31 32 33 34 35 36 37 38 39 40 41 42 43 44 45 46 47 48 49 50
000
ASUS43 KGRB 281201
RWRGRB

NORTH-CENTRAL AND NORTHEAST WISCONSIN REGIONAL WEATHER ROUNDUP
NATIONAL WEATHER SERVICE GREEN BAY WI
700 AM CDT FRI JUL 28 2017

WIZ005-009-010>012-018-019-281300-
NORTH CENTRAL WISCONSIN

CITY           SKY/WX    TMP DP  RH WIND       PRES   REMARKS
IRONWOOD       SUNNY     54  51  90 CALM      30.14S
MANITOWISH WTR MOSUNNY   52  52 100 CALM      30.14S
ARBOR VITAE    NOT AVBL
EAGLE RIVER    NOT AVBL
LAND O LAKES   SUNNY     50  50 100 CALM      30.15S
RHINELANDER    SUNNY     54  52  93 CALM      30.14R
PHILLIPS       SUNNY     53  53 100 CALM      30.14R
ANTIGO         SUNNY     54  53  96 CALM      30.12S
TOMAHAWK       NOT AVBL
MERRILL        NOT AVBL
$$

WIZ013-073-281300-
NORTHEAST WISCONSIN

CITY           SKY/WX    TMP DP  RH WIND       PRES   REMARKS
IRON MOUNTAIN  NOT AVBL
MARINETTE      SUNNY     58  54  86 N7        30.08R
$$

WIZ017-030-035>037-045-281300-
CENTRAL WISCONSIN

CITY           SKY/WX    TMP DP  RH WIND       PRES   REMARKS
MEDFORD        NOT AVBL
WAUSAU         SUNNY     59  54  83 N6        30.10R
MOSINEE        SUNNY     57  55  94 CALM      30.11S
MARSHFIELD     SUNNY     62  57  83 NE7       30.10R
WISC RAPIDS    SUNNY     64  56  75 NE7       30.10R
STEVENS POINT  NOT AVBL
WAUPACA        NOT AVBL
SHAWANO        SUNNY     61  54  77 N3        30.09R
CLINTONVILLE   SUNNY    N/A N/A N/A N7        30.09R
WAUTOMA        SUNNY     61  55  81 NE5       30.09R
$$

WIZ038-039-048-051-281300-
FOX VALLEY

CITY           SKY/WX    TMP DP  RH WIND       PRES   REMARKS
NWS GREEN BAY  SUNNY     60  57  89 N7        30.06S
APPLETON       SUNNY     61  52  72 N8        30.06S
OSHKOSH        SUNNY     62  54  74 N7        30.06S
FOND DU LAC    SUNNY     66  56  70 N12       30.06R
$$

WIZ022-050-052-281300-
EAST CENTRAL WISCONSIN

CITY           SKY/WX    TMP DP  RH WIND       PRES   REMARKS
EPHRAIM        FAIR      61  56  84 NE7       30.06R
WASHINGTON ISL CLOUDY    61  56  82 NE7       30.06S
STURGEON BAY     N/A     62  58  86 NE5       30.07R
MANITOWOC      NOT AVBL
SHEBOYGAN      SUNNY     61  57  87 N8        30.04S
$$

LMZ563-521-522-541>543-281300-
LAKESHORE

STATION/POSITION TIME  TEMP    WIND        PRES    VSBY  WAVE
                       AIR SEA DIR/SP/G                  HT/PER
                 (UTC) (F)     (DEG/KT/KT) (MB)    (MI)  (FT/S)
SHEBOYGAN LKSHOR 1100   65      10/ 15/ 17 1016.5S
KEWAUNEE LKSHORE 1130   60     320/  3/  5 1016.7R
NORTHPORT PIER   1140   64      30/  5/  8 1017.9S
N MID LAKE BUOY  1050   64 66   40/ 12/ 14 1017.9R         2/ 4
S GREEN BAY BUOY 1130   63 71  360/ 14/ 17 1017.6R
SISTER BAY LKSHO 1117   61     110/  1/  4   N/A
CHAMBERS ISLAND  1140   66      10/ 12/ 15 1017.3S
MENOMINEE LKSHOR 1130   61     360/ 12/ 15 1017.6S
$$




USA.gov is the U.S. government's official web portal to all federal, state and local government web resources and services.